QPF
0.00 0.00 0.00 0.00 0.00 0.00 0.00 0.00 0.00 0.00 0.00 0.00 0.00 0.00 0.00 0.00 0.00 0.00 0.00 0.00 0.00 0.00 0.00 0.00 0.00 0.00 0.00 0.00 0.00 0.00 0.00 0.00 0.00 0.00 0.00 0.00 0.00 0.00 0.00 0.01 0.01 0.01 0.00 0.00 0.00 0.00 0.00 0.00 0.00
0.00 0.00 0.00 0.00 0.00 0.00 0.00 0.00 0.00 0.00 0.00 0.00 0.00 0.00 0.00 0.00 0.00 0.00 0.00 0.00 0.00 0.00 0.00 0.00 0.00 0.00 0.00 0.00 0.00 0.00 0.00 0.00 0.00 0.00 0.00 0.00 0.00 0.00 0.00 0.00 0.01 0.01 0.00 0.00 0.00 0.00 0.00 0.00 0.00
0.00 0.00 0.00 0.00 0.00 0.00 0.00 0.00 0.00 0.00 0.00 0.00 0.00 0.00 0.00 0.00 0.00 0.00 0.00 0.00 0.00 0.00 0.00 0.00 0.00 0.00 0.00 0.00 0.00 0.00 0.00 0.00 0.00 0.00 0.01 0.01 0.00 0.00 0.00 0.00 0.00 0.01 0.01 0.00 0.00 0.00 0.00 0.00 0.00
0.00 0.00 0.00 0.00 0.00 0.00 0.00 0.00 0.00 0.00 0.00 0.00 0.00 0.00 0.00 0.00 0.00 0.00 0.00 0.00 0.00 0.00 0.00 0.00 0.00 0.00 0.00 0.00 0.00 0.00 0.01 0.00 0.00 0.00 0.00 0.01 0.00 0.00 0.00 0.00 0.00 0.01 0.00 0.00 0.00 0.00 0.00 0.00 0.00
0.00 0.00 0.00 0.00 0.00 0.00 0.00 0.00 0.00 0.00 0.00 0.00 0.00 0.00 0.00 0.00 0.00 0.00 0.00 0.00 0.00 0.00 0.00 0.01 0.01 0.00 0.00 0.00 0.00 0.00 0.01 0.00 0.00 0.00 0.00 0.00 0.00 0.00 0.00 0.00 0.00 0.00 0.00 0.00 0.00 0.00 0.00 0.00 0.00
0.01 0.01 0.00 0.00 0.00 0.00 0.00 0.00 0.00 0.00 0.00 0.00 0.00 0.00 0.00 0.00 0.00 0.00 0.00 0.00 0.00 0.00 0.00 0.00 0.01 0.00 0.00 0.00 0.00 0.00 0.00 0.00 0.00 0.00 0.00 0.00 0.00 0.00 0.00 0.00 0.00 0.00 0.00 0.00 0.00 0.00 0.00 0.00 0.00
0.00 0.00 0.00 0.00 0.00 0.00 0.00 0.00 0.00 0.00 0.00 0.00 0.00 0.00 0.00 0.00 0.01 0.00 0.00 0.00 0.00 0.00 0.00 0.00 0.00 0.00 0.00 0.00 0.00 0.00 0.00 0.00 0.00 0.00 0.00 0.00 0.00 0.00 0.00 0.00 0.00 0.00 0.00 0.00 0.00 0.00 0.00 0.00 0.00
0.01 0.02 0.00 0.00 0.00 0.00 0.00 0.00 0.00 0.00 0.00 0.00 0.00 0.00 0.00 0.00 0.01 0.01 0.01 0.01 0.00 0.00 0.00 0.00 0.00 0.00 0.00 0.00 0.00 0.00 0.00 0.00 0.00 0.00 0.00 0.00 0.00 0.00 0.00 0.00 0.00 0.00 0.00 0.00 0.00 0.00 0.00 0.00 0.00
0.02 0.03 0.00 0.00 0.00 0.00 0.00 0.00 0.00 0.00 0.00 0.00 0.00 0.00 0.00 0.00 0.02 0.01 0.01 0.01 0.01 0.00 0.00 0.00 0.00 0.00 0.00 0.00 0.00 0.00 0.00 0.00 0.00 0.00 0.00 0.00 0.00 0.00 0.00 0.00 0.00 0.00 0.00 0.00 0.00 0.00 0.00 0.00 0.00
0.03 0.00 0.00 0.00 0.00 0.00 0.00 0.05 0.01 0.00 0.00 0.00 0.00 0.02 0.04 0.05 0.05 0.03 0.01 0.01 0.01 0.02 0.00 0.00 0.00 0.00 0.00 0.00 0.00 0.00 0.00 0.00 0.00 0.00 0.00 0.00 0.00 0.00 0.00 0.00 0.00 0.00 0.00 0.00 0.00 0.00 0.00 0.00 0.00
0.00 0.00 0.00 0.00 0.00 0.00 0.03 0.06 0.00 0.00 0.00 0.00 0.00 0.00 0.03 0.06 0.05 0.06 0.01 0.00 0.00 0.00 0.00 0.00 0.00 0.00 0.00 0.00 0.00 0.00 0.00 0.00 0.00 0.00 0.00 0.00 0.00 0.00 0.00 0.00 0.00 0.00 0.00 0.00 0.00 0.00 0.00 0.00 0.00
0.00 0.00 0.00 0.00 0.00 0.01 0.03 0.01 0.03 0.01 0.00 0.00 0.00 0.00 0.00 0.01 0.01 0.01 0.03 0.02 0.00 0.00 0.00 0.00 0.00 0.00 0.00 0.00 0.00 0.00 0.00 0.00 0.00 0.00 0.00 0.00 0.00 0.00 0.00 0.00 0.00 0.00 0.00 0.00 0.00 0.00 0.00 0.00 0.00
0.00 0.00 0.00 0.00 0.00 0.00 0.00 0.00 0.00 0.00 0.00 0.00 0.00 0.03 0.00 0.01 0.01 0.02 0.05 0.07 0.01 0.00 0.00 0.00 0.00 0.00 0.00 0.00 0.00 0.00 0.00 0.00 0.00 0.00 0.00 0.00 0.00 0.00 0.00 0.00 0.00 0.00 0.00 0.00 0.00 0.00 0.00 0.00 0.00
0.00 0.00 0.00 0.00 0.00 0.00 0.00 0.00 0.00 0.00 0.00 0.00 0.00 0.01 0.02 0.01 0.00 0.01 0.02 0.02 0.01 0.02 0.01 0.00 0.00 0.00 0.00 0.00 0.00 0.00 0.00 0.00 0.00 0.00 0.00 0.00 0.00 0.00 0.00 0.00 0.00 0.00 0.00 0.00 0.00 0.00 0.00 0.00 0.00
0.01 0.01 0.02 0.01 0.00 0.00 0.00 0.00 0.00 0.00 0.00 0.00 0.00 0.01 0.00 0.01 0.00 0.00 0.00 0.00 0.00 0.01 0.01 0.01 0.00 0.00 0.00 0.00 0.00 0.00 0.00 0.00 0.00 0.00 0.00 0.00 0.00 0.00 0.00 0.00 0.00 0.00 0.00 0.00 0.00 0.00 0.00 0.00 0.00
0.01 0.03 0.03 0.02 0.00 0.00 0.00 0.00 0.00 0.00 0.00 0.00 0.00 0.00 0.00 0.00 0.00 0.00 0.00 0.00 0.00 0.00 0.01 0.03 0.01 0.00 0.00 0.00 0.00 0.00 0.00 0.00 0.00 0.00 0.00 0.00 0.00 0.00 0.00 0.00 0.00 0.00 0.00 0.00 0.00 0.00 0.00 0.00 0.00
0.01 0.01 0.00 0.00 0.00 0.00 0.00 0.00 0.00 0.00 0.00 0.00 0.00 0.00 0.00 0.00 0.00 0.00 0.00 0.00 0.00 0.00 0.00 0.00 0.01 0.01 0.00 0.00 0.00 0.00 0.00 0.00 0.00 0.00 0.00 0.00 0.00 0.00 0.00 0.00 0.00 0.00 0.00 0.00 0.00 0.00 0.00 0.00 0.00
0.00 0.00 0.00 0.00 0.00 0.00 0.00 0.00 0.00 0.00 0.00 0.00 0.00 0.00 0.00 0.00 0.00 0.00 0.00 0.00 0.00 0.00 0.00 0.00 0.00 0.00 0.02 0.01 0.00 0.00 0.00 0.00 0.00 0.01 0.01 0.00 0.00 0.00 0.00 0.00 0.00 0.00 0.00 0.00 0.00 0.00 0.00 0.00 0.00
0.00 0.00 0.00 0.00 0.00 0.00 0.00 0.00 0.00 0.00 0.00 0.00 0.00 0.00 0.00 0.00 0.00 0.00 0.00 0.00 0.00 0.00 0.00 0.00 0.00 0.00 0.02 0.02 0.00 0.00 0.01 0.00 0.00 0.00 0.01 0.00 0.00 0.00 0.00 0.00 0.00 0.00 0.00 0.00 0.00 0.00 0.00 0.00 0.00
0.00 0.00 0.00 0.00 0.00 0.00 0.00 0.00 0.00 0.00 0.00 0.00 0.00 0.00 0.00 0.00 0.00 0.00 0.00 0.00 0.00 0.00 0.00 0.00 0.00 0.00 0.00 0.02 0.03 0.01 0.03 0.05 0.01 0.00 0.00 0.00 0.01 0.01 0.00 0.00 0.01 0.00 0.00 0.00 0.00 0.00 0.00 0.00 0.00
0.00 0.00 0.00 0.00 0.00 0.00 0.00 0.00 0.00 0.00 0.00 0.00 0.00 0.00 0.00 0.00 0.00 0.00 0.00 0.00 0.00 0.00 0.00 0.00 0.00 0.00 0.00 0.00 0.01 0.00 0.00 0.00 0.01 0.00 0.00 0.06 0.04 0.04 0.02 0.00 0.01 0.00 0.00 0.00 0.00 0.00 0.00 0.02 0.03
0.00 0.02 0.01 0.00 0.00 0.00 0.00 0.00 0.00 0.00 0.00 0.00 0.00 0.00 0.00 0.00 0.00 0.00 0.00 0.00 0.00 0.00 0.00 0.00 0.00 0.00 0.00 0.00 0.00 0.00 0.00 0.00 0.00 0.01 0.03 0.04 0.03 0.02 0.03 0.02 0.02 0.01 0.00 0.00 0.00 0.02 0.03 0.05 0.05
0.00 0.00 0.00 0.01 0.00 0.00 0.00 0.00 0.00 0.00 0.00 0.00 0.00 0.00 0.00 0.00 0.00 0.00 0.00 0.00 0.00 0.00 0.00 0.00 0.00 0.00 0.00 0.00 0.00 0.00 0.00 0.00 0.00 0.00 0.00 0.00 0.00 0.00 0.00 0.01 0.02 0.02 0.00 0.00 0.00 0.01 0.02 0.02 0.04
0.00 0.01 0.01 0.02 0.04 0.05 0.00 0.00 0.00 0.00 0.00 0.00 0.00 0.00 0.00 0.00 0.00 0.00 0.00 0.00 0.00 0.00 0.00 0.00 0.00 0.00 0.00 0.00 0.00 0.00 0.00 0.00 0.00 0.00 0.00 0.00 0.00 0.00 0.00 0.00 0.00 0.00 0.00 0.00 0.02 0.05 0.05 0.05 0.05
0.00 0.01 0.05 0.05 0.06 0.02 0.00 0.00 0.00 0.00 0.00 0.00 0.00 0.00 0.00 0.00 0.00 0.00 0.00 0.00 0.00 0.00 0.00 0.00 0.00 0.00 0.00 0.00 0.00 0.00 0.00 0.00 0.00 0.00 0.00 0.00 0.00 0.00 0.00 0.00 0.00 0.01 0.01 0.01 0.00 0.01 0.01 0.02 0.03
0.00 0.00 0.01 0.01 0.00 0.00 0.00 0.00 0.00 0.00 0.00 0.00 0.00 0.00 0.00 0.00 0.00 0.00 0.00 0.00 0.00 0.00 0.00 0.00 0.00 0.00 0.00 0.00 0.00 0.00 0.00 0.00 0.00 0.00 0.00 0.00 0.00 0.00 0.00 0.00 0.00 0.00 0.00 0.00 0.00 0.00 0.00 0.00 0.01
0.00 0.01 0.05 0.06 0.00 0.00 0.00 0.00 0.00 0.00 0.00 0.00 0.00 0.00 0.00 0.00 0.00 0.00 0.00 0.00 0.00 0.00 0.00 0.00 0.00 0.00 0.00 0.00 0.00 0.00 0.00 0.00 0.00 0.00 0.00 0.00 0.00 0.00 0.00 0.00 0.00 0.00 0.00 0.00 0.00 0.00 0.00 0.00 0.00
0.00 0.00 0.03 0.12 0.05 0.00 0.00 0.00 0.00 0.00 0.00 0.00 0.00 0.00 0.00 0.00 0.00 0.00 0.00 0.00 0.00 0.00 0.00 0.00 0.00 0.00 0.00 0.00 0.00 0.00 0.00 0.00 0.00 0.00 0.00 0.00 0.00 0.00 0.00 0.00 0.00 0.00 0.00 0.00 0.00 0.00 0.00 0.00 0.00
0.00 0.00 0.00 0.00 0.01 0.00 0.00 0.00 0.00 0.00 0.00 0.00 0.00 0.00 0.00 0.00 0.00 0.00 0.00 0.00 0.00 0.00 0.00 0.00 0.00 0.00 0.00 0.00 0.00 0.00 0.00 0.00 0.00 0.00 0.00 0.00 0.00 0.00 0.00 0.00 0.00 0.00 0.00 0.00 0.00 0.00 0.00 0.00 0.00
0.00 0.00 0.00 0.00 0.00 0.00 0.00 0.00 0.00 0.00 0.00 0.00 0.00 0.00 0.00 0.00 0.00 0.00 0.00 0.00 0.00 0.00 0.00 0.00 0.00 0.00 0.00 0.00 0.00 0.00 0.00 0.00 0.00 0.00 0.00 0.00 0.00 0.00 0.00 0.00 0.00 0.00 0.00 0.00 0.00 0.00 0.00 0.00 0.00
MSLP
1014.79 1014.65 1014.96 1015.25 1016.91 1017.66 1017.11 1015.64 1013.91 1012.76 1011.69 1010.62 1010.43 1010.15 1010.74 1011.11 1011.34 1012.63 1012.05 1012.56 1012.83 1013.54 1013.95 1014.41 1014.82 1015.25 1015.66 1015.99 1016.29 1016.56 1016.87 1017.09 1017.25 1017.44 1017.72 1017.92 1018.15 1018.36 1018.51 1018.65 1018.70 1018.80 1019.01 1019.31 1019.47 1019.48 1019.58 1019.75 1019.79
1014.76 1014.67 1015.21 1016.08 1017.30 1017.95 1016.69 1015.11 1013.69 1012.58 1011.47 1010.57 1010.38 1010.43 1010.83 1011.60 1011.55 1012.07 1012.58 1012.85 1012.53 1013.33 1014.02 1014.50 1014.91 1015.39 1015.78 1016.16 1016.44 1016.68 1016.86 1017.06 1017.27 1017.45 1017.78 1018.06 1018.28 1018.52 1018.77 1018.87 1018.94 1018.99 1019.28 1019.49 1019.75 1019.74 1019.89 1020.00 1020.06
1014.85 1015.04 1015.79 1016.31 1017.47 1017.47 1016.25 1014.58 1013.81 1012.17 1011.15 1010.64 1010.29 1010.45 1010.98 1011.46 1011.66 1011.91 1012.04 1012.75 1013.00 1013.64 1014.13 1014.60 1015.07 1015.47 1015.87 1016.21 1016.56 1016.81 1016.94 1017.17 1017.34 1017.48 1017.76 1018.05 1018.44 1018.66 1018.86 1019.04 1019.18 1019.27 1019.51 1019.80 1019.88 1020.00 1020.03 1020.16 1020.30
1015.20 1015.53 1016.20 1016.11 1016.95 1016.37 1015.10 1014.48 1013.83 1012.79 1011.45 1010.41 1010.18 1011.11 1011.31 1011.26 1011.26 1011.39 1012.25 1012.78 1013.28 1013.85 1014.22 1014.75 1015.22 1015.58 1015.92 1016.27 1016.63 1016.87 1017.13 1017.33 1017.48 1017.59 1017.86 1018.18 1018.58 1018.78 1018.99 1019.26 1019.34 1019.50 1019.72 1019.93 1020.06 1020.20 1020.20 1020.37 1020.49
1015.83 1016.12 1016.60 1016.76 1016.32 1015.35 1014.04 1014.50 1014.13 1013.30 1012.28 1010.77 1010.33 1011.37 1011.60 1011.49 1011.41 1011.72 1012.44 1012.95 1013.40 1014.10 1014.34 1014.88 1015.34 1015.73 1016.08 1016.42 1016.72 1016.91 1017.12 1017.29 1017.55 1017.85 1018.06 1018.37 1018.72 1018.92 1019.18 1019.40 1019.51 1019.65 1019.85 1020.03 1020.18 1020.34 1020.41 1020.59 1020.60
1016.57 1016.38 1016.55 1016.28 1015.51 1014.29 1013.47 1013.97 1013.95 1013.28 1012.12 1011.15 1010.99 1011.51 1012.01 1011.94 1012.01 1012.45 1012.74 1013.16 1013.38 1014.08 1014.50 1014.98 1015.51 1015.91 1016.24 1016.51 1016.82 1017.00 1017.09 1017.43 1017.85 1018.24 1018.55 1018.68 1018.92 1019.06 1019.27 1019.41 1019.53 1019.73 1019.95 1020.09 1020.30 1020.39 1020.63 1020.62 1020.69
1016.27 1016.63 1016.23 1015.81 1015.24 1014.21 1013.03 1013.63 1013.82 1013.48 1012.55 1010.93 1010.97 1011.93 1012.39 1012.23 1012.29 1012.73 1013.16 1013.50 1013.89 1014.10 1014.68 1015.11 1015.55 1016.01 1016.32 1016.61 1016.93 1017.13 1017.24 1017.61 1018.04 1018.58 1018.87 1018.96 1019.13 1019.26 1019.33 1019.42 1019.52 1019.75 1019.97 1020.20 1020.42 1020.58 1020.62 1020.60 1020.71
1016.10 1016.30 1016.09 1015.44 1014.84 1013.65 1013.03 1013.84 1013.43 1013.79 1012.66 1011.05 1010.80 1011.77 1012.51 1012.26 1012.45 1012.90 1013.64 1013.96 1014.26 1014.60 1014.76 1015.28 1015.64 1016.06 1016.40 1016.66 1016.91 1017.22 1017.30 1017.66 1018.11 1018.64 1019.00 1019.22 1019.40 1019.43 1019.45 1019.54 1019.70 1019.86 1020.14 1020.41 1020.61 1020.64 1020.68 1020.75 1020.77
1015.97 1016.21 1015.41 1014.72 1014.40 1013.36 1012.96 1013.49 1013.26 1013.41 1013.32 1011.99 1011.07 1011.09 1011.23 1012.07 1012.65 1013.32 1014.05 1014.39 1014.62 1015.00 1015.18 1015.39 1015.71 1016.08 1016.37 1016.56 1016.87 1017.13 1017.34 1017.65 1018.08 1018.45 1018.91 1019.28 1019.67 1019.73 1019.72 1019.73 1019.91 1020.23 1020.46 1020.65 1020.78 1020.81 1020.89 1020.96 1021.02
1015.89 1015.75 1014.52 1013.69 1013.69 1013.46 1014.13 1014.14 1014.80 1014.32 1013.41 1012.77 1011.85 1011.48 1011.91 1012.39 1012.86 1013.40 1013.93 1014.47 1014.79 1015.14 1015.36 1015.55 1015.69 1015.98 1016.16 1016.28 1016.71 1017.07 1017.43 1017.82 1018.17 1018.56 1018.88 1019.20 1019.51 1019.82 1019.96 1020.07 1020.23 1020.55 1020.71 1020.89 1020.97 1021.06 1021.15 1021.30 1021.43
1015.40 1014.70 1014.18 1013.65 1013.62 1013.79 1014.92 1015.44 1015.42 1015.17 1014.28 1013.62 1012.49 1012.08 1012.57 1012.98 1013.35 1013.74 1013.97 1014.05 1014.57 1014.85 1015.29 1015.47 1015.63 1015.80 1015.98 1016.17 1016.73 1017.17 1017.42 1017.79 1018.14 1018.51 1018.79 1019.10 1019.56 1019.86 1020.02 1020.27 1020.39 1020.68 1020.80 1021.04 1021.19 1021.31 1021.45 1021.59 1021.72
1015.22 1014.47 1014.15 1013.83 1013.85 1015.10 1015.58 1015.36 1015.83 1015.55 1014.18 1013.04 1012.62 1011.51 1012.29 1012.91 1013.27 1013.46 1013.99 1014.10 1014.57 1014.85 1015.07 1015.31 1015.34 1015.62 1015.98 1016.21 1016.78 1017.08 1017.39 1017.71 1018.16 1018.44 1018.75 1019.13 1019.67 1020.05 1020.20 1020.26 1020.40 1020.66 1020.88 1020.99 1021.17 1021.39 1021.60 1021.66 1021.64
1015.09 1014.66 1014.32 1014.05 1014.01 1014.14 1015.08 1015.11 1015.30 1014.70 1013.39 1013.37 1012.63 1012.63 1012.39 1013.12 1013.29 1013.53 1013.59 1014.01 1014.43 1014.69 1014.85 1015.01 1015.37 1015.68 1015.80 1016.19 1016.52 1016.92 1017.21 1017.55 1017.79 1018.22 1018.49 1018.89 1019.38 1019.75 1020.04 1020.19 1020.32 1020.54 1020.74 1020.94 1021.14 1021.32 1021.47 1021.58 1021.59
1014.70 1014.71 1014.65 1014.26 1014.18 1014.10 1014.35 1014.36 1014.38 1013.82 1014.23 1013.84 1012.94 1012.64 1012.98 1013.11 1013.26 1013.56 1014.03 1014.22 1014.50 1014.55 1014.72 1014.71 1015.01 1015.24 1015.60 1016.12 1016.22 1016.55 1016.88 1017.15 1017.55 1017.84 1018.07 1018.51 1018.87 1019.20 1019.64 1020.00 1020.13 1020.29 1020.53 1020.71 1020.93 1021.14 1021.27 1021.44 1021.42
1014.97 1015.11 1014.89 1014.71 1014.53 1014.22 1014.33 1014.41 1013.84 1013.62 1014.18 1013.89 1013.44 1013.43 1013.16 1013.34 1013.43 1013.38 1013.43 1013.75 1013.88 1014.28 1014.38 1014.62 1014.77 1014.92 1015.32 1015.81 1015.99 1016.36 1016.55 1016.84 1017.24 1017.41 1017.64 1018.07 1018.42 1018.76 1019.15 1019.56 1019.90 1019.92 1020.16 1020.40 1020.72 1020.90 1021.02 1021.19 1021.20
1015.44 1015.83 1015.44 1014.47 1014.52 1014.16 1013.99 1013.27 1013.61 1013.32 1013.39 1013.33 1013.37 1013.27 1013.31 1013.06 1013.17 1013.26 1013.24 1013.30 1013.59 1013.85 1014.21 1014.61 1014.63 1014.91 1015.03 1015.33 1015.72 1016.14 1016.44 1016.46 1016.83 1017.17 1017.33 1017.65 1017.97 1018.28 1018.78 1019.15 1019.34 1019.44 1019.80 1020.14 1020.49 1020.72 1021.07 1021.11 1021.14
1015.28 1015.43 1015.28 1014.67 1013.96 1013.85 1013.82 1013.44 1013.26 1012.84 1013.65 1013.35 1013.57 1013.42 1013.38 1013.14 1013.07 1013.24 1013.10 1013.09 1013.33 1013.51 1013.62 1014.07 1014.52 1014.75 1014.96 1015.19 1015.38 1015.64 1015.88 1016.34 1016.37 1016.75 1016.99 1017.07 1017.47 1017.77 1018.12 1018.49 1018.71 1019.01 1019.46 1019.80 1020.13 1020.47 1020.68 1020.90 1021.00
1014.62 1015.39 1015.43 1015.05 1014.47 1014.38 1014.20 1013.72 1013.13 1012.88 1013.02 1013.19 1013.14 1013.26 1013.29 1013.39 1013.00 1012.87 1013.02 1012.84 1012.95 1013.19 1013.59 1013.75 1014.01 1014.39 1014.82 1015.11 1015.36 1015.66 1015.91 1016.02 1016.11 1016.37 1016.46 1016.67 1016.97 1017.26 1017.61 1017.92 1018.21 1018.52 1018.98 1019.43 1019.77 1020.02 1020.25 1020.36 1020.50
1014.95 1015.44 1015.43 1015.42 1014.81 1014.76 1014.66 1014.26 1013.49 1012.88 1012.93 1012.93 1012.84 1013.10 1013.20 1013.15 1012.68 1012.60 1012.70 1012.98 1013.07 1013.19 1013.51 1013.81 1014.10 1014.05 1014.48 1015.12 1015.62 1015.88 1015.91 1016.01 1016.11 1016.01 1016.07 1016.32 1016.47 1016.71 1017.11 1017.41 1017.77 1018.07 1018.48 1018.80 1019.20 1019.59 1019.94 1020.27 1020.36
1014.61 1015.32 1015.71 1015.53 1014.97 1015.44 1015.03 1014.29 1014.02 1013.42 1012.99 1012.72 1012.75 1012.88 1012.86 1012.94 1012.91 1012.96 1012.86 1013.25 1013.37 1013.43 1013.59 1013.80 1013.98 1014.32 1014.51 1014.69 1014.97 1015.12 1015.44 1015.70 1015.74 1015.67 1015.82 1015.96 1016.16 1016.35 1016.71 1016.93 1017.34 1017.68 1018.08 1018.47 1018.82 1019.23 1019.71 1019.79 1020.07
1014.91 1015.10 1015.59 1015.39 1015.22 1015.59 1015.55 1015.18 1014.46 1013.43 1012.98 1012.77 1012.56 1012.52 1012.61 1012.79 1013.27 1013.64 1013.48 1013.78 1013.93 1014.07 1014.16 1014.16 1014.18 1014.21 1014.35 1014.59 1014.90 1015.23 1015.50 1015.58 1015.65 1015.67 1015.74 1015.72 1016.00 1016.17 1016.43 1016.69 1017.00 1017.40 1017.74 1018.00 1018.16 1018.55 1019.03 1019.35 1019.67
1015.07 1015.28 1015.52 1015.60 1015.86 1016.23 1015.92 1015.33 1014.08 1013.26 1012.97 1012.86 1012.51 1012.54 1012.76 1012.98 1013.35 1013.86 1014.01 1014.29 1014.46 1014.44 1014.32 1014.36 1014.51 1014.54 1014.45 1014.49 1014.75 1015.04 1015.30 1015.53 1015.31 1015.24 1015.40 1015.62 1015.65 1015.98 1016.15 1016.37 1016.60 1016.91 1017.31 1017.74 1017.72 1017.98 1018.24 1018.87 1019.28
1015.22 1015.02 1015.74 1016.13 1016.51 1016.56 1016.43 1016.53 1014.14 1013.27 1012.89 1011.77 1011.56 1012.09 1012.61 1013.05 1013.34 1013.96 1014.28 1014.40 1014.60 1014.68 1014.69 1014.56 1014.42 1014.56 1014.78 1014.82 1014.75 1015.03 1015.31 1015.38 1015.31 1015.35 1015.35 1015.36 1015.49 1015.57 1015.80 1016.05 1016.32 1016.70 1016.93 1017.14 1017.39 1017.62 1017.89 1018.15 1018.46
1015.28 1015.87 1016.36 1016.93 1017.38 1017.54 1016.69 1016.79 1014.02 1013.03 1011.71 1011.61 1011.66 1011.85 1012.50 1013.30 1013.76 1014.07 1014.32 1014.55 1014.83 1014.98 1015.03 1015.02 1015.06 1015.22 1015.11 1015.01 1015.08 1015.18 1015.36 1015.48 1015.62 1015.55 1015.48 1015.35 1015.25 1015.29 1015.26 1015.60 1015.92 1016.07 1016.24 1016.44 1016.80 1017.17 1017.60 1017.79 1017.95
1015.63 1016.50 1017.39 1017.73 1017.71 1016.91 1016.29 1016.55 1013.14 1012.16 1011.55 1011.39 1011.35 1011.78 1012.56 1013.13 1013.74 1014.22 1014.61 1014.95 1015.27 1015.43 1015.53 1015.61 1015.65 1015.77 1015.70 1015.58 1015.55 1015.51 1015.46 1015.59 1015.75 1015.74 1015.65 1015.52 1015.45 1015.39 1015.27 1015.32 1015.61 1015.85 1016.01 1016.06 1016.44 1016.87 1017.22 1017.45 1017.68
1015.63 1016.21 1017.09 1017.35 1017.64 1017.06 1016.46 1015.13 1012.63 1011.85 1011.23 1011.00 1011.18 1011.76 1012.60 1013.37 1013.75 1014.30 1014.79 1015.09 1015.55 1015.72 1015.86 1015.97 1015.97 1016.05 1016.05 1016.01 1016.04 1016.03 1015.95 1016.00 1016.11 1016.09 1016.02 1015.94 1015.77 1015.71 1015.40 1015.46 1015.52 1015.72 1015.80 1016.01 1016.25 1016.70 1017.16 1017.41 1017.54
1015.97 1016.68 1017.25 1017.55 1017.50 1017.33 1015.98 1014.18 1012.52 1011.95 1011.82 1011.57 1011.85 1012.57 1013.06 1013.47 1014.08 1014.61 1015.03 1015.28 1015.80 1016.07 1016.05 1016.16 1016.36 1016.50 1016.53 1016.52 1016.50 1016.51 1016.45 1016.43 1016.51 1016.51 1016.52 1016.51 1016.44 1016.38 1016.28 1016.11 1016.09 1016.31 1016.45 1016.44 1016.79 1017.09 1017.67 1017.66 1017.95
1015.61 1016.62 1017.55 1017.72 1017.92 1017.66 1015.84 1014.64 1012.86 1012.34 1012.31 1012.06 1012.27 1012.93 1013.40 1013.82 1014.40 1015.14 1015.53 1015.65 1016.11 1016.39 1016.43 1016.50 1016.80 1017.00 1017.05 1017.02 1017.02 1017.15 1017.17 1017.17 1017.15 1017.16 1017.22 1017.12 1017.03 1016.96 1016.88 1016.85 1016.93 1017.02 1017.01 1017.07 1017.25 1017.88 1018.05 1018.25 1018.73
1016.08 1016.15 1016.69 1016.96 1017.45 1017.08 1016.35 1013.81 1012.01 1011.59 1011.70 1012.03 1012.52 1012.87 1013.48 1014.14 1014.71 1015.37 1015.69 1015.91 1016.36 1016.81 1017.00 1017.08 1017.30 1017.47 1017.54 1017.59 1017.70 1017.74 1017.91 1017.87 1017.79 1017.83 1017.88 1017.81 1017.67 1017.58 1017.55 1017.64 1017.61 1017.63 1017.72 1017.78 1018.10 1018.34 1018.61 1018.91 1019.27
1015.16 1015.41 1015.93 1016.67 1017.30 1017.10 1016.34 1013.76 1011.94 1011.57 1011.73 1012.06 1012.52 1013.03 1013.56 1014.07 1014.78 1015.49 1015.91 1016.36 1016.81 1017.16 1017.45 1017.55 1017.73 1017.86 1017.99 1018.08 1018.21 1018.39 1018.42 1018.42 1018.41 1018.52 1018.49 1018.39 1018.37 1018.28 1018.27 1018.28 1018.27 1018.56 1018.71 1018.79 1018.90 1019.14 1019.32 1019.53 1019.72
Thickness
5664 5671 5675 5674 5649 5644 5652 5677 5702 5708 5725 5744 5750 5747 5744 5747 5746 5729 5769 5771 5771 5766 5763 5760 5758 5756 5753 5751 5749 5748 5747 5746 5746 5746 5743 5742 5739 5737 5735 5733 5733 5732 5730 5727 5725 5725 5723 5720 5720
5655 5663 5662 5651 5630 5628 5651 5682 5695 5705 5727 5740 5742 5745 5742 5735 5755 5754 5758 5766 5770 5764 5759 5757 5756 5752 5750 5748 5747 5746 5746 5746 5744 5744 5741 5739 5737 5735 5732 5731 5730 5729 5726 5724 5720 5721 5718 5716 5715
5645 5652 5641 5637 5620 5629 5652 5684 5691 5711 5726 5734 5740 5745 5740 5739 5753 5757 5765 5764 5763 5760 5757 5754 5752 5750 5748 5746 5745 5744 5744 5742 5742 5742 5740 5738 5734 5732 5730 5728 5726 5725 5722 5719 5717 5715 5715 5713 5711
5630 5631 5628 5623 5623 5649 5670 5674 5680 5696 5718 5737 5739 5722 5739 5752 5756 5763 5762 5761 5759 5756 5754 5751 5748 5747 5746 5744 5742 5742 5740 5740 5740 5741 5738 5735 5732 5730 5728 5724 5723 5721 5718 5715 5714 5711 5712 5709 5707
5615 5615 5604 5605 5625 5655 5679 5672 5673 5683 5698 5723 5733 5716 5725 5745 5757 5759 5757 5756 5754 5751 5750 5747 5745 5743 5742 5741 5739 5739 5739 5739 5738 5736 5734 5732 5729 5727 5724 5721 5720 5718 5714 5712 5710 5708 5707 5704 5705
5594 5603 5597 5605 5632 5665 5674 5669 5669 5679 5695 5714 5715 5714 5720 5737 5746 5747 5751 5749 5750 5747 5745 5743 5741 5739 5739 5738 5738 5737 5738 5736 5734 5731 5728 5727 5726 5723 5720 5718 5717 5714 5711 5709 5706 5705 5702 5703 5701
5588 5587 5597 5613 5632 5646 5661 5660 5658 5666 5681 5709 5716 5701 5713 5727 5741 5743 5743 5744 5743 5742 5740 5739 5737 5736 5736 5736 5735 5735 5735 5732 5730 5726 5724 5723 5721 5719 5716 5715 5714 5711 5708 5705 5702 5700 5700 5700 5697
5585 5588 5592 5606 5623 5637 5656 5652 5662 5660 5672 5709 5714 5695 5699 5723 5735 5738 5735 5734 5735 5736 5735 5735 5734 5733 5733 5733 5733 5732 5734 5731 5727 5722 5720 5718 5716 5714 5713 5711 5709 5707 5704 5701 5698 5698 5697 5694 5693
5583 5573 5591 5607 5616 5640 5657 5652 5661 5662 5665 5689 5706 5711 5720 5721 5727 5727 5724 5726 5727 5728 5731 5730 5731 5730 5730 5730 5730 5730 5730 5728 5725 5723 5719 5714 5711 5709 5708 5708 5705 5701 5698 5696 5695 5693 5691 5690 5688
5571 5565 5593 5627 5633 5636 5624 5638 5630 5641 5654 5670 5688 5705 5712 5712 5716 5718 5718 5718 5719 5720 5724 5726 5727 5728 5728 5728 5728 5727 5725 5723 5722 5720 5717 5713 5710 5707 5705 5703 5700 5696 5693 5691 5690 5688 5686 5684 5682
5573 5584 5608 5616 5624 5616 5603 5618 5628 5629 5634 5658 5676 5692 5697 5699 5704 5709 5714 5718 5715 5718 5720 5723 5724 5725 5726 5726 5724 5723 5722 5720 5718 5716 5714 5711 5707 5704 5702 5699 5696 5692 5690 5688 5685 5683 5681 5679 5677
5568 5587 5595 5603 5602 5595 5602 5616 5614 5621 5639 5663 5673 5693 5693 5692 5700 5707 5708 5712 5710 5713 5716 5719 5721 5722 5722 5722 5719 5719 5717 5716 5714 5712 5711 5708 5703 5700 5698 5696 5694 5691 5687 5685 5682 5680 5676 5674 5673
5563 5576 5586 5592 5596 5605 5605 5608 5614 5626 5643 5652 5667 5672 5684 5685 5692 5700 5706 5706 5707 5709 5713 5715 5717 5718 5718 5717 5715 5714 5714 5713 5712 5709 5708 5704 5700 5697 5695 5694 5691 5688 5685 5682 5679 5676 5673 5671 5670
5566 5570 5575 5584 5589 5600 5602 5609 5612 5630 5630 5638 5654 5662 5670 5678 5685 5691 5694 5698 5701 5705 5709 5713 5715 5715 5714 5713 5713 5712 5712 5711 5708 5707 5705 5703 5699 5696 5692 5690 5688 5686 5683 5680 5677 5674 5671 5668 5667
5555 5557 5564 5572 5579 5589 5596 5591 5610 5621 5622 5632 5644 5649 5662 5670 5675 5683 5692 5694 5699 5701 5706 5708 5711 5712 5712 5711 5711 5710 5710 5709 5707 5706 5703 5701 5698 5695 5693 5688 5686 5684 5681 5678 5674 5670 5668 5666 5664
5540 5544 5546 5570 5575 5587 5590 5599 5608 5618 5620 5627 5637 5644 5651 5668 5672 5677 5685 5691 5694 5699 5701 5702 5707 5708 5710 5710 5708 5706 5706 5706 5704 5702 5700 5698 5696 5694 5691 5687 5684 5683 5678 5674 5670 5667 5663 5662 5660
5536 5535 5546 5565 5583 5588 5588 5593 5607 5618 5611 5623 5629 5638 5645 5657 5666 5672 5678 5686 5690 5694 5699 5700 5702 5703 5705 5706 5705 5705 5704 5703 5703 5701 5699 5698 5696 5694 5690 5687 5685 5682 5677 5672 5669 5665 5663 5659 5656
5540 5544 5543 5552 5571 5578 5581 5588 5604 5613 5614 5618 5626 5630 5638 5645 5658 5668 5673 5681 5688 5690 5692 5696 5698 5699 5699 5700 5699 5699 5698 5698 5698 5697 5697 5696 5694 5692 5689 5686 5682 5680 5676 5671 5667 5664 5660 5657 5653
5535 5540 5549 5550 5563 5569 5572 5581 5595 5607 5610 5614 5624 5627 5633 5643 5654 5662 5669 5672 5678 5684 5686 5688 5689 5694 5694 5692 5690 5690 5691 5691 5692 5694 5693 5693 5691 5688 5686 5684 5680 5677 5673 5670 5665 5659 5655 5649 5646
5540 5535 5537 5549 5560 5559 5566 5578 5582 5593 5604 5611 5619 5624 5631 5638 5644 5652 5660 5666 5671 5675 5679 5683 5685 5686 5687 5686 5687 5689 5688 5687 5690 5691 5691 5689 5687 5685 5682 5680 5676 5670 5666 5663 5658 5653 5647 5645 5639
5530 5533 5533 5549 5556 5555 5559 5563 5572 5590 5600 5607 5617 5625 5630 5633 5637 5641 5649 5654 5658 5662 5667 5672 5676 5679 5680 5680 5679 5679 5680 5683 5683 5684 5684 5684 5681 5680 5677 5674 5670 5666 5662 5659 5656 5649 5644 5641 5634
5525 5533 5538 5544 5542 5536 5556 5549 5570 5592 5595 5600 5610 5617 5621 5627 5631 5632 5638 5643 5648 5651 5658 5661 5664 5667 5671 5674 5675 5674 5674 5674 5679 5680 5679 5678 5676 5673 5672 5668 5666 5663 5658 5653 5652 5647 5643 5634 5629
5527 5536 5537 5537 5537 5543 5547 5542 5565 5578 5585 5607 5621 5621 5619 5621 5624 5625 5629 5635 5639 5643 5648 5652 5657 5659 5661 5665 5668 5669 5668 5668 5668 5669 5670 5670 5669 5667 5665 5663 5659 5656 5652 5649 5645 5642 5637 5632 5627
5525 5527 5530 5530 5529 5528 5537 5538 5558 5575 5600 5601 5612 5615 5611 5611 5615 5619 5622 5626 5628 5632 5637 5641 5645 5646 5649 5652 5655 5659 5661 5660 5659 5660 5661 5662 5662 5661 5659 5655 5652 5650 5648 5646 5641 5637 5631 5627 5621
5518 5516 5515 5523 5528 5523 5535 5535 5578 5583 5592 5598 5605 5605 5604 5606 5608 5610 5614 5616 5618 5621 5625 5629 5632 5633 5637 5641 5643 5646 5650 5651 5651 5652 5653 5655 5655 5653 5653 5649 5645 5642 5639 5637 5633 5629 5625 5620 5615
5519 5515 5492 5511 5517 5527 5535 5540 5572 5584 5585 5596 5598 5601 5600 5599 5601 5602 5603 5607 5609 5612 5614 5616 5620 5624 5627 5629 5631 5633 5636 5637 5638 5640 5641 5643 5645 5644 5644 5641 5638 5635 5632 5629 5626 5623 5617 5612 5608
5514 5516 5513 5504 5524 5491 5529 5552 5572 5577 5576 5580 5585 5589 5590 5593 5591 5592 5592 5595 5597 5599 5604 5606 5608 5611 5614 5617 5619 5621 5623 5625 5626 5627 5627 5628 5630 5630 5629 5629 5628 5624 5621 5619 5616 5612 5604 5601 5596
5517 5513 5513 5513 5525 5517 5530 5542 5560 5568 5563 5570 5576 5575 5580 5585 5581 5580 5581 5585 5585 5587 5591 5595 5596 5598 5601 5604 5607 5607 5609 5610 5612 5613 5613 5615 5615 5616 5615 5614 5612 5610 5609 5607 5604 5596 5592 5588 5581
5509 5515 5515 5516 5501 5503 5502 5543 5566 5569 5566 5566 5565 5570 5571 5573 5573 5570 5573 5576 5575 5575 5577 5581 5584 5586 5589 5590 5592 5594 5594 5596 5597 5598 5599 5600 5601 5601 5601 5599 5599 5597 5595 5595 5590 5585 5580 5575 5569
5516 5522 5518 5486 5513 5483 5487 5535 5563 5561 5561 5562 5561 5565 5564 5567 5565 5561 5562 5564 5564 5565 5566 5569 5572 5574 5576 5577 5579 5579 5581 5582 5584 5584 5585 5586 5586 5587 5586 5586 5586 5582 5580 5578 5576 5572 5568 5563 5557